NOAA NWS Hourly Roundups by Site

Regional Weather Roundup for Upton, NY

To Select Another Site Choose from List

Select Site:  

000
ASUS41 KOKX 072310
RWROKX

Regional Weather Roundup
National Weather Service New York NY
600 PM EST WED DEC 07 2022

Note: "FAIR" indicates few or no clouds below 12,000 feet with no
significant weather and/or obstructions to visibility.

NYZ071-072-176-178-NJZ106-104-080000-
New York City Metro Area

CITY           SKY/WX    TMP DP  RH WIND       PRES   REMARKS
Central Park   CLOUDY    57  54  89 SW3       30.12R FOG
World Trd Ctr  NOT AVBL
Bronx Lehman C   N/A     57  54  88 SW7         N/A
LaGuardia Arpt CLOUDY    57  53  86 SW9       30.09S
Queens College   N/A     55  55 100 W9          N/A
Kennedy Intl   FOG       54  53  97 SW15      30.10F VSB 1/4
Breezy Point     N/A     54 N/A N/A W8          N/A
Brooklyn Coll    N/A     55  54  94 SW7         N/A
Staten Island    N/A     55  54  94 SW8         N/A
Newark/Liberty CLOUDY    57  54  89 SW9       30.09F
Teterboro      CLOUDY    58  55  90 S9        30.08S
$$

NYZ177-179-078>081-080000-
Long Island New York

CITY           SKY/WX    TMP DP  RH WIND       PRES   REMARKS
Jones Beach      N/A     52 N/A N/A SW7         N/A
Wantagh          N/A     55  55 100 SW7         N/A
Hempstead      NOT AVBL
Matinecock Pt    N/A     54 N/A N/A SW10        N/A
Farmingdale    CLOUDY    56  55  97 SW9       30.09F FOG
MacArthur/ISP  DRZL/FOG  56  55  97 S8        30.08S VSB 1
Stony Brook      N/A     55  55 100 SW3         N/A
Shirley        CLOUDY    56  53  90 SW6       30.08F FOG
Mt Sinai Harb    N/A     55 N/A N/A S5          N/A
Westhampton    FOG       55  55 100 SW7       30.10F VSB 3/4
East Hampton   CLOUDY    56  56 100 SW9       30.07F FOG
Southold         N/A     55  55 100 SW8         N/A
Montauk          N/A     58  56  93 SW8       30.08F
$$

NYZ052-065-067-080000-
Hudson Valley

CITY           SKY/WX    TMP DP  RH WIND       PRES   REMARKS
White Plains   CLOUDY    56  55  97 W8        30.07R FOG
Larchmont Harb   N/A     55 N/A N/A SW14        N/A
Croton On Huds   N/A     55 N/A N/A S5          N/A
Somers           N/A     55  55 100 SW3         N/A
Brewster         N/A     55  55 100 S2          N/A
Newburgh       NOT AVBL
Montgomery     CLOUDY    54  52  93 SW8       30.06R
Otisville        N/A     52  52 100 S5          N/A
Warwick          N/A     54  54 100 W7          N/A
Suffern          N/A     54  54 100 SW5         N/A
Poughkeepsie   CLOUDY    56  55  97 CALM      30.06R
Albany         DRIZZLE   56  53  90 W5        30.06R
$$

NJZ001-105-106-008-010-013-015-019>022-104-080000-
New Jersey

CITY           SKY/WX    TMP DP  RH WIND       PRES   REMARKS
Newark/Liberty CLOUDY    57  54  89 SW9       30.09F
Teterboro      CLOUDY    58  55  90 S9        30.08S
Caldwell       CLOUDY    56  53  90 VRB3      30.09S
Somerville     CLOUDY    55  54  96 CALM      30.09S FOG
Linden         CLOUDY    56  54  93 W6        30.10S FOG
Perth Amboy      N/A     54 N/A N/A W8          N/A
Sussex         CLOUDY    54  53  97 VRB5      30.09S FOG
Andover          N/A     55  51  86 S3        30.10R
Trenton        CLOUDY    54  53  97 W6        30.11S FOG
Millville      CLOUDY    56  56 100 W8        30.13F FOG
Atlantic City  FOG       58  57  97 SW5       30.13R VSB 1
Wrightstown    FOG       55  55  99 W6        30.11  VSB 1/2
Toms River     NOT AVBL
Belmar         CLOUDY   N/A N/A N/A W7        30.12S FOG
$$

PAZ047>061-062-071-080000-
Eastern Pennsylvania

CITY           SKY/WX    TMP DP  RH WIND       PRES   REMARKS
Philadelphia   CLOUDY    55  54  96 W6        30.14R FOG
Allentown      CLOUDY    52  50  93 W6        30.12R FOG
Scranton       CLOUDY    52  50  93 W8        30.11R FOG
$$

CTZ002-004>006-009-010-012-RIZ004-006-007-MAZ004-011-015-080000-
Southern New England

 In CT

CITY           SKY/WX    TMP DP  RH WIND       PRES   REMARKS
Bradley Intl   CLOUDY    57  55  93 S7        30.04F FOG
Hartford       CLOUDY    57  56  96 S6        30.04F
Danbury        CLOUDY    58  55  90 SW8       30.07S
Wtrbury/Oxford FOG       56  56 100 SW5       30.07R VSB 1/2
Norwalk Harbor   N/A     52 N/A N/A SW3         N/A
Bridgeport     FOG       54  54 100 SW7       30.07S VSB 1/2
Meriden        CLOUDY    56  54  93 S6        30.05F FOG
New Haven      FOG       56  55  97 CALM      30.06F VSB 1/4
Chester        FOG       57  57 100 S5        30.06F VSB<1/4
Groton         FOG       56  54  93 S6        30.05F VSB 1/2
Willimantic    CLOUDY    56  56 100 S5        30.05F FOG

 In RI

CITY           SKY/WX    TMP DP  RH WIND       PRES   REMARKS
Providence     LGT RAIN  57  56  96 S10       30.07F
Block Island   LGT RAIN  55  55 100 SW15      30.09F VSB 1/2
Westerly       CLOUDY    56  56 100 S10       30.06F FOG

In MA

CITY           SKY/WX    TMP DP  RH WIND       PRES   REMARKS
Boston         CLOUDY    56  56 100 S7        30.05F
Worcester      FOG       56  55  97 SW8       30.03F VSB 1/4
Westfield      FOG       55  55 100 S7        30.03F VSB 3/4
Provincetown   RAIN      55  55 100 S13G20    30.09F
Nantucket      LGT RAIN N/A N/A N/A S16       30.12F
$$

ANZ330-335-338-340-345-350-353-355-080000-
Coastal Marine Observations


STATION/POSITION TIME  SKY/WX   TEMP    WIND        PRES    VSBY  WAVE
                                AIR SEA DIR/SP/G                  HT/PER
                 (UTC)          (F)     (DEG/KT/KT) (MB)    (MI)  (FT/S)
NY Harb Entrance 2250               52  220/  6/ 10 1018.0          5/10
20 S Fire Island 2250                               1018.4          6/11
Great South Bay  NOT AVBL
23 SSW Montauk P 2250            57     220/ 14/ 16 1019.1          7/10
15 E Barnegat Li 2256               53                N/A           5/10
Hudson Canyon    2250            59 57  210/ 14/ 19 1019.1          6/10
Kings Point      2230            56 50  200/  8/  9 1018.9
Execution Rocks  2245            53 49  230/  8       N/A
Western LI Sound 2245            53     250/  8/ 10   N/A
Central LI Sound NOT AVBL
Robbins Reef     2230            56     250/  9/ 11 1018.8
$$


>>>>>>>>>>>>>>>>>>>>>>>>>>>> KEY <<<<<<<<<<<<<<<<<<<<<<<<<<<
>                                                          <
>     SKY/WX - Sky Condition/Present Weather               <
>     TMP    - Temperature in Fahrenheit                   <
>     DP     - Dew Point in Fahrenheit                     <
>     RH     - Relative Humidity in Percent                <
>     WIND   - Direction (from) and Speed in MPH           <
>     PRES   - Mean Sea Level Pressure (inches of Hg)      <
>     WCI    - Wind Chill Index                            <
>     VSB    - Visibility in Miles                         <
>     HX     - Heat Index                                  <
>     TC     - Temperature in Celsius                      <
>     VRB    - Variable Wind Direction                     <
>                                                          <
>>>>>>>>>>>>>>>>>>>>>>>>>>>> KEY <<<<<<<<<<<<<<<<<<<<<<<<<<<


 

View Past Reports for Upton, NY.

Products Courtesy of NOAA-NWS
NWS Information Parsing Script by Ken True at Saratoga Weather - Script by SE Lincoln Weather.